DEIMOS-1

Last updated on Sun Sep 20 2026 00:02:43 GMT+0000 (Coordinated Universal Time)

1 35681U 09041A 26262.46319043 .00000311 00000+0 52967-4 0 9992 2 35681 97.7539 55.6810 0000441 139.3683 220.7559 14.75317524920787
UTC large
Height (km)
Speed (km/s)
/
Latitude / Longitude
Inclination (degrees)
Orbital Period (minutes)
Azimuth
Elevation
Range (km)
Doppler Factor

Next 0 passes for location: London (51.5072 / 0.1276)

No passes found over London.
DEIMOS-1